Weather History for Birmingham, AL

Change the Weather History Date:

Thursday, February 7, 2013

  Actual Average Record
Temperature  
Mean Temperature 54 °F 46 °F  
Max Temperature 58 °F 56 °F 76 °F (1957)
Min Temperature 49 °F 35 °F 12 °F (1988)
Degree Days  
Heating Degree Days 11 19  
Month to date heating degree days 128 138  
Since 1 July heating degree days 1610 1843  
Growing Degree Days 2 (Base 50)    
Moisture  
Dew Point 46 °F    
Average Humidity 67    
Maximum Humidity 93    
Minimum Humidity 40    
Precipitation  
Precipitation 0.16 in 0.15 in 5.60 in (1903)
Month to date precipitation 0.31 1.12  
Year to date precipitation 8.69 5.96  
Snow  
Snow 0.00 in 0.00 in - ()
Month to date snowfall 0.0 0.0  
Since 1 July snowfall 2.1 0.7  
Snow Depth 0.00 in    
Sea Level Pressure  
Sea Level Pressure 30.00 in    
Wind  
Wind Speed 6 mph (NE)    
Max Wind Speed 13 mph    
Max Gust Speed 18 mph    
Visibility 9 miles    
Events Rain    
T = Trace of Precipitation, MM = Missing Value Source: NWS Daily Summary

Daily Weather History Graph

Daily Weather History Graph

Search for Another Location

Airport:

Trip Planner

Search our weather history database for the weather conditions in past years. The results will help you decide how hot, cold, wet, or windy it might be!

Date:

Astronomy

Feb. 07, 2013 Rise Set
Actual Time 6:38 AM CST 5:24 PM CST
Civil Twilight 6:12 AM CST 5:50 PM CST
Nautical Twilight 5:43 AM CST 6:19 PM CST
Astronomical Twilight 5:13 AM CST 6:48 PM CST
Moon 4:12 AM CST (2/7) 2:52 PM CST (2/7)
Length of Visible Light 11h 37m
Length of Day
10h 46m
Waning Crescent, 9% of the Moon is Illuminated
Feb 7
Waning Crescent
Feb 10
New
Feb 17
First Quarter
Feb 25
Full
Mar 4
Last Quarter

Hourly Weather History & Observations

Time (CST) Temp. Dew Point Humidity Pressure Visibility Wind Dir Wind Speed Gust Speed Precip Events Conditions
12:53 AM 57.0 °F 34.0 °F 42% 30.12 in 10.0 mi East 3.5 mph - N/A   Overcast
1:53 AM 50.0 °F 45.0 °F 83% 30.11 in 9.0 mi North 10.4 mph - 0.01 in Rain Light Rain
2:53 AM 50.0 °F 48.0 °F 93% 30.11 in 8.0 mi Calm Calm - 0.06 in Rain Light Rain
3:53 AM 48.9 °F 46.9 °F 93% 30.10 in 9.0 mi NNE 3.5 mph - 0.05 in Rain Light Rain
4:53 AM 48.9 °F 46.0 °F 90% 30.07 in 10.0 mi NE 6.9 mph - 0.03 in Rain Light Rain
5:53 AM 48.9 °F 46.0 °F 90% 30.06 in 10.0 mi ENE 6.9 mph - 0.01 in Rain Light Rain
6:53 AM 48.9 °F 46.0 °F 90% 30.06 in 10.0 mi NE 6.9 mph - 0.00 in   Overcast
7:53 AM 48.9 °F 46.0 °F 90% 30.03 in 10.0 mi NE 8.1 mph - N/A   Overcast
8:48 AM 50.0 °F 46.4 °F 87% 30.03 in 10.0 mi NE 5.8 mph - N/A   Overcast
8:53 AM 50.0 °F 46.0 °F 86% 30.02 in 10.0 mi NE 8.1 mph - N/A   Overcast
9:02 AM 50.0 °F 46.4 °F 87% 30.02 in 10.0 mi NE 9.2 mph - N/A   Overcast
9:31 AM 51.8 °F 46.4 °F 82% 30.02 in 10.0 mi NE 8.1 mph - N/A   Overcast
9:53 AM 51.1 °F 46.9 °F 86% 30.02 in 10.0 mi NE 8.1 mph - N/A   Overcast
10:53 AM 51.1 °F 46.9 °F 86% 30.00 in 8.0 mi ENE 6.9 mph - 0.00 in Rain Light Rain
11:02 AM 51.8 °F 46.4 °F 82% 30.01 in 7.0 mi East 5.8 mph - 0.00 in Rain Light Rain
11:46 AM 51.8 °F 48.2 °F 88% 29.99 in 5.0 mi ENE 8.1 mph - 0.00 in Rain Light Rain
11:53 AM 51.1 °F 48.0 °F 89% 29.97 in 6.0 mi ENE 9.2 mph - 0.00 in Rain Light Rain
12:07 PM 51.8 °F 48.2 °F 88% 29.97 in 10.0 mi ENE 6.9 mph - 0.00 in Rain Light Rain
12:53 PM 51.1 °F 48.0 °F 89% 29.95 in 7.0 mi Variable 6.9 mph - 0.00 in Rain Light Rain
1:53 PM 51.1 °F 48.0 °F 89% 29.95 in 6.0 mi NE 9.2 mph - 0.00 in Rain Light Rain
2:27 PM 51.8 °F 48.2 °F 88% 29.94 in 10.0 mi NE 8.1 mph - 0.00 in Rain Light Rain
2:53 PM 52.0 °F 48.0 °F 86% 29.94 in 10.0 mi ENE 6.9 mph - 0.00 in   Overcast
3:53 PM 52.0 °F 48.0 °F 86% 29.94 in 10.0 mi NE 6.9 mph - N/A   Overcast
4:53 PM 50.0 °F 46.9 °F 89% 29.94 in 10.0 mi NE 9.2 mph - N/A   Overcast
5:00 PM 50.0 °F 46.4 °F 87% 29.94 in 10.0 mi NE 9.2 mph - N/A   Overcast
5:53 PM 50.0 °F 46.9 °F 89% 29.95 in 8.0 mi ENE 6.9 mph - N/A   Overcast
6:53 PM 48.9 °F 46.9 °F 93% 29.96 in 5.0 mi ENE 3.5 mph - N/A   Overcast
7:53 PM 48.9 °F 46.9 °F 93% 29.98 in 8.0 mi NE 4.6 mph - N/A   Overcast
8:53 PM 48.9 °F 46.9 °F 93% 29.96 in 9.0 mi ENE 5.8 mph - N/A   Overcast
9:53 PM 48.9 °F 46.9 °F 93% 29.99 in 10.0 mi ENE 3.5 mph - N/A   Overcast
10:53 PM 50.0 °F 46.0 °F 86% 29.99 in 10.0 mi NE 3.5 mph - N/A   Overcast
11:53 PM 48.9 °F 46.0 °F 90% 29.98 in 8.0 mi ENE 4.6 mph - N/A   Overcast